(145700) = 2002 TN43 = 4139 T-3

Discovered at Palomar on 1977-10-16 by C. J. van Houten, I. van Houten-Groeneveld, and T. Gehrels.

Orbit

Orbit type: Main Belt

Note: WebGL enabled browser required.

epoch2024-03-31.0
epoch JD2460400.5
perihelion date2023-07-21.15175
perihelion JD2460146.65175
argument of perihelion (°)274.90564
ascending node (°)126.46379
inclination (°)4.95524
eccentricity0.1809502
perihelion distance (AU)2.1124576
Tisserand w.r.t. Jupiter3.4
ΔV w.r.t. Earth (km/sec)9.3
semimajor axis (AU)2.5791566
mean anomaly (°)60.40341
mean daily motion (°/day)0.23795090
aphelion distance (AU)3.046
period (years)4.14
P-vector [x]0.74746890
P-vector [y]0.63857718
P-vector [z]0.18305582
Q-vector [x]-0.66065461
Q-vector [y]0.68577307
Q-vector [z]0.30536992
absolute magnitude16.04
phase slope0.15
uncertainty0
referenceMPEC 2024-C163
observations used941
oppositions20
arc length (days)16900
first opposition used1977
last opposition used2024
residual rms (arc-secs)0.74
perturbers coarse indicatorM-v
perturbers precise indicator003Ek
first observation date used1977-10-11.0
last observation date used2024-01-18.0
computer nameMPCLINUX
JD of orbit computation2456937.416926
perihelion JD uncertainty (days)5.7996E-05
argument of perihelion uncertainty (°)4.7817E-05
ascending node uncertainty (°)4.6023E-05
inclination uncertainty (°)4.1401E-06
eccentricity uncertainty 3.5853E-08
perihelion distance uncertainty (AU)9.4344E-08
Minimum Orbit Intersection Distances (in AU)
for orbit epoch: 2460200.5, reference: E2024-CG3
Mercury1.7905
Venus1.39064
Earth1.12692
Mars0.64842
Jupiter2.36874
Saturn6.61786
Uranus15.5593
Neptune27.6212

Observations

968 total observations over interval: 1977 10 11.30000 – 2024 01 18.426098
These data are available for download (format description).

Date (UT) J2000 RA J2000 Dec Magn Location Ref
1977 10 11.30000 01 24 57.21 -00 33 23.7   675 – Palomar Mountain MPS 16168
1977 10 11.36771 01 24 53.74 -00 33 49.4   675 – Palomar Mountain MPS 16168
1977 10 12.29826 01 24 08.40 -00 39 29.9   675 – Palomar Mountain MPS 16168
1977 10 12.36441 01 24 05.02 -00 39 55.1   675 – Palomar Mountain MPS 16168
1977 10 16.28368 01 20 52.27 -01 02 43.0 19.0   675 – Palomar Mountain MPS 16168
1977 10 16.34931 01 20 48.91 -01 03 04.3   675 – Palomar Mountain MPS 16168
1977 10 17.28628 01 20 03.07 -01 08 14.0   675 – Palomar Mountain MPS 16168
1977 10 17.35313 01 19 59.62 -01 08 35.5   675 – Palomar Mountain MPS 16168
1977 10 21.38698 01 16 44.41 -01 29 00.7   675 – Palomar Mountain MPS 16168
1977 10 21.44705 01 16 41.49 -01 29 17.6   675 – Palomar Mountain MPS 16168
1977 10 22.38542 01 15 57.37 -01 33 39.2   675 – Palomar Mountain MPS 16168
1977 10 22.44878 01 15 54.16 -01 33 55.0   675 – Palomar Mountain MPS 16168
1993 06 21.41401 20 08 07.42 -17 50 58.0   691 – Steward Observatory, Kitt Peak-Spacewatch MPS 82746
1993 06 21.43195 20 08 06.77 -17 51 00.8   691 – Steward Observatory, Kitt Peak-Spacewatch MPS 82746
1993 06 21.44724 20 08 06.24 -17 51 03.6 20.6 V 691 – Steward Observatory, Kitt Peak-Spacewatch MPS 82746
2000 02 12.474030 13 10 47.195 -01 47 08.02 20.87 V 645 – Apache Point-Sloan Digital Sky Survey MPS 80330
2000 02 12.477502 13 10 47.176 -01 47 07.45 21.64   645 – Apache Point-Sloan Digital Sky Survey MPS 80330
2002 09 16.40499 03 18 47.08 +10 38 44.5 19.4 R 699 – Lowell Observatory-LONEOS MPS 68481
2002 09 16.42340 03 18 47.45 +10 38 43.2   699 – Lowell Observatory-LONEOS MPS 68481
2002 09 16.44180 03 18 47.98 +10 38 41.6   699 – Lowell Observatory-LONEOS MPS 68481
2002 09 16.46024 03 18 48.33 +10 38 38.4   699 – Lowell Observatory-LONEOS MPS 68481
2002 09 16.53086 03 18 50.34 +10 38 33.0 20.3   608 – Haleakala-AMOS MPS 68481
2002 09 16.54107 03 18 50.61 +10 38 31.9 20.3   608 – Haleakala-AMOS MPS 68481
2002 09 16.55160 03 18 50.83 +10 38 30.0 20.9   608 – Haleakala-AMOS MPS 68481
2002 10 02.40920 03 21 34.68 +09 55 53.3 19.9   704 – Lincoln Laboratory ETS, New Mexico MPS 63908
2002 10 02.42545 03 21 34.41 +09 55 50.5 19.9   704 – Lincoln Laboratory ETS, New Mexico MPS 63908
2002 10 02.44046 03 21 34.47 +09 55 46.4 20.2   704 – Lincoln Laboratory ETS, New Mexico MPS 63908
2002 10 02.45548 03 21 34.19 +09 55 43.5 19.5   704 – Lincoln Laboratory ETS, New Mexico MPS 63908
2002 10 03.32618 03 21 29.48 +09 52 37.2 19.4   704 – Lincoln Laboratory ETS, New Mexico MPS 63908
2002 10 03.34146 03 21 29.29 +09 52 33.7 19.8   704 – Lincoln Laboratory ETS, New Mexico MPS 63908
2002 10 03.35682 03 21 29.18 +09 52 29.8 19.9   704 – Lincoln Laboratory ETS, New Mexico MPS 63908
2002 10 03.37257 03 21 29.06 +09 52 26.2 20.0   704 – Lincoln Laboratory ETS, New Mexico MPS 63908
2002 10 03.38793 03 21 28.83 +09 52 22.0 19.6   704 – Lincoln Laboratory ETS, New Mexico MPS 63908
2002 10 28.57968 03 08 52.82 +08 07 15.8 19.5   608 – Haleakala-AMOS MPS 66033
2002 10 28.59038 03 08 52.28 +08 07 13.5 20.4   608 – Haleakala-AMOS MPS 66033
2002 10 28.60117 03 08 51.75 +08 07 10.6 19.2   608 – Haleakala-AMOS MPS 66034
2002 10 30.29575 03 07 28.86 +08 00 08.2 17.8   644 – Palomar Mountain/NEAT MPS 66034
2002 10 30.37483 03 07 24.70 +07 59 48.9 17.8   644 – Palomar Mountain/NEAT MPS 66034
2002 10 30.45283 03 07 20.62 +07 59 29.7 18.0   644 – Palomar Mountain/NEAT MPS 66034
2002 11 07.27829 03 00 30.42 +07 30 10.8 18.4   704 – Lincoln Laboratory ETS, New Mexico MPS 66034
2002 11 07.29589 03 00 29.42 +07 30 07.0 18.7   704 – Lincoln Laboratory ETS, New Mexico MPS 66034
2002 11 07.31356 03 00 28.39 +07 30 04.2 19.0   704 – Lincoln Laboratory ETS, New Mexico MPS 66034
2002 11 07.33100 03 00 27.43 +07 30 00.1 19.0   704 – Lincoln Laboratory ETS, New Mexico MPS 66034
2002 11 07.34853 03 00 26.44 +07 29 56.8 19.0   704 – Lincoln Laboratory ETS, New Mexico MPS 66034
2002 11 11.24378 02 56 57.06 +07 17 55.3 18.1   704 – Lincoln Laboratory ETS, New Mexico MPS 66034
2002 11 11.24390 02 56 57.02 +07 17 55.0 18.4   704 – Lincoln Laboratory ETS, New Mexico MPS 66034
2002 11 11.26107 02 56 56.05 +07 17 51.6 18.7   704 – Lincoln Laboratory ETS, New Mexico MPS 66034
2002 11 11.26119 02 56 56.08 +07 17 51.3 18.9   704 – Lincoln Laboratory ETS, New Mexico MPS 66034
2002 11 11.27833 02 56 55.08 +07 17 49.1 18.6   704 – Lincoln Laboratory ETS, New Mexico MPS 66034
2002 11 11.27848 02 56 55.14 +07 17 49.3 18.6   704 – Lincoln Laboratory ETS, New Mexico MPS 66034
2002 11 11.29560 02 56 54.15 +07 17 46.2 18.5   704 – Lincoln Laboratory ETS, New Mexico MPS 66034
2002 11 11.29572 02 56 54.14 +07 17 45.9 18.6   704 – Lincoln Laboratory ETS, New Mexico MPS 66034
2002 11 11.31288 02 56 53.17 +07 17 43.2 18.4   704 – Lincoln Laboratory ETS, New Mexico MPS 66034
2002 11 11.31300 02 56 53.21 +07 17 43.0 18.8   704 – Lincoln Laboratory ETS, New Mexico MPS 66034
2002 12 01.21694 02 41 43.49 +06 55 37.7 18.6   704 – Lincoln Laboratory ETS, New Mexico MPS 68481
2002 12 01.23207 02 41 42.94 +06 55 38.2 19.1   704 – Lincoln Laboratory ETS, New Mexico MPS 68481
2002 12 01.24756 02 41 42.40 +06 55 38.7 18.7   704 – Lincoln Laboratory ETS, New Mexico MPS 68481
2002 12 01.26282 02 41 41.88 +06 55 39.8 18.8   704 – Lincoln Laboratory ETS, New Mexico MPS 68481
2002 12 01.27802 02 41 41.31 +06 55 39.9 18.7   704 – Lincoln Laboratory ETS, New Mexico MPS 68481
2002 12 07.22004 02 38 53.86 +07 03 47.0 19.0   704 – Lincoln Laboratory ETS, New Mexico MPS 68481
2002 12 07.23541 02 38 53.43 +07 03 48.7 19.2   704 – Lincoln Laboratory ETS, New Mexico MPS 68481
2002 12 07.25075 02 38 53.04 +07 03 49.5 19.5   704 – Lincoln Laboratory ETS, New Mexico MPS 68481
2002 12 07.26620 02 38 52.62 +07 03 51.8 19.5   704 – Lincoln Laboratory ETS, New Mexico MPS 68481
2002 12 07.28139 02 38 52.31 +07 03 53.2 19.0   704 – Lincoln Laboratory ETS, New Mexico MPS 68481
2002 12 08.49037 02 38 25.89 +07 06 25.0 20.0   608 – Haleakala-AMOS MPS 68481
2002 12 08.50091 02 38 25.63 +07 06 26.2 20.1   608 – Haleakala-AMOS MPS 68481
2002 12 08.51155 02 38 25.42 +07 06 27.6 20.0   608 – Haleakala-AMOS MPS 68481
2002 12 11.15337 02 37 38.10 +07 12 53.8 18.7   704 – Lincoln Laboratory ETS, New Mexico MPS 68481
2002 12 11.16860 02 37 37.87 +07 12 56.7 19.2   704 – Lincoln Laboratory ETS, New Mexico MPS 68481
2002 12 11.18369 02 37 37.60 +07 12 58.8 19.1   704 – Lincoln Laboratory ETS, New Mexico MPS 68481
2002 12 11.19879 02 37 37.34 +07 13 02.2 19.3   704 – Lincoln Laboratory ETS, New Mexico MPS 68481
2002 12 11.21388 02 37 37.07 +07 13 03.9 19.2   704 – Lincoln Laboratory ETS, New Mexico MPS 68481
2003 01 01.19291 02 39 11.12 +08 46 04.8 18.8 C 704 – Lincoln Laboratory ETS, New Mexico MPS 291294
2003 01 01.20769 02 39 11.51 +08 46 10.3 19.5 C 704 – Lincoln Laboratory ETS, New Mexico MPS 291294
2003 01 01.22268 02 39 11.74 +08 46 15.2 19.2 C 704 – Lincoln Laboratory ETS, New Mexico MPS 291294
2003 01 01.23764 02 39 12.04 +08 46 20.4 19.7 C 704 – Lincoln Laboratory ETS, New Mexico MPS 291294
2003 01 07.14915 02 42 04.42 +09 23 19.4 19.5 C 704 – Lincoln Laboratory ETS, New Mexico MPS 291294
2003 01 07.19539 02 42 05.97 +09 23 38.3 19.4 C 704 – Lincoln Laboratory ETS, New Mexico MPS 291294
2003 01 07.21079 02 42 06.53 +09 23 46.0 19.2 C 704 – Lincoln Laboratory ETS, New Mexico MPS 291294
2003 02 02.10517 03 05 05.55 +12 36 38.8 19.9   644 – Palomar Mountain/NEAT MPS 73403
2003 02 02.12641 03 05 07.03 +12 36 49.3 20.5   644 – Palomar Mountain/NEAT MPS 73403
2003 02 02.14775 03 05 08.48 +12 36 59.6 20.4   644 – Palomar Mountain/NEAT MPS 73403
2004 03 15.30074 12 01 15.22 +06 13 14.6 20.4 V 703 – Catalina Sky Survey MPS 101333
2004 03 15.31440 12 01 14.69 +06 13 19.7 19.9 V 703 – Catalina Sky Survey MPS 101333
2004 03 15.32806 12 01 13.97 +06 13 26.2 20.0 V 703 – Catalina Sky Survey MPS 101333
2004 03 15.34179 12 01 13.18 +06 13 31.4 19.8 V 703 – Catalina Sky Survey MPS 101333
2004 03 17.31314 11 59 32.10 +06 26 38.1 19.3   704 – Lincoln Laboratory ETS, New Mexico MPS 101333
2004 03 17.32451 11 59 31.57 +06 26 43.6 20.3   704 – Lincoln Laboratory ETS, New Mexico MPS 101333
